Weather History for Dubuque, IA

Change the Weather History Date:

Sunday, February 17, 2013

  Actual Average Record
Temperature  
Mean Temperature 20 °F 24 °F  
Max Temperature 31 °F 32 °F 61 °F (1981)
Min Temperature 9 °F 16 °F -13 °F (1958)
Degree Days  
Heating Degree Days 45 41  
Month to date heating degree days 734 732  
Since 1 July heating degree days 4783 4969  
Cooling Degree Days 0 0  
Month to date cooling degree days 0 0  
Year to date cooling degree days 0 0  
Moisture  
Dew Point 14 °F    
Average Humidity 71    
Maximum Humidity 83    
Minimum Humidity 58    
Precipitation  
Precipitation 0.00 in 0.06 in 1.21 in (1887)
Month to date precipitation 0.84 0.80  
Year to date precipitation 2.56 1.97  
Snow  
Snow 0.00 in 0.30 in - ()
Month to date snowfall 4.2 5.9  
Since 1 July snowfall 30.0 30.5  
Snow Depth 0.00 in    
Sea Level Pressure  
Sea Level Pressure 30.08 in    
Wind  
Wind Speed 13 mph (SSE)    
Max Wind Speed 26 mph    
Max Gust Speed 31 mph    
Visibility 10 miles    
Events      
T = Trace of Precipitation, MM = Missing Value Source: NWS Daily Summary

Daily Weather History Graph

Daily Weather History Graph

Search for Another Location

Airport:

Trip Planner

Search our weather history database for the weather conditions in past years. The results will help you decide how hot, cold, wet, or windy it might be!

Date:

Astronomy

Feb. 17, 2013 Rise Set
Actual Time 6:56 AM CST 5:38 PM CST
Civil Twilight 6:27 AM CST 6:06 PM CST
Nautical Twilight 5:54 AM CST 6:39 PM CST
Astronomical Twilight 5:22 AM CST 7:12 PM CST
Moon 10:39 AM CST (2/17) 12:43 AM CST (2/17)
Length of Visible Light 11h 39m
Length of Day
10h 41m
Waxing Crescent, 49% of the Moon is Illuminated
Feb 17
Waxing Crescent
Feb 17
First Quarter
Feb 25
Full
Mar 4
Last Quarter
Mar 11
New

Hourly Weather History & Observations

Time (CST) Temp. Windchill Dew Point Humidity Pressure Visibility Wind Dir Wind Speed Gust Speed Precip Events Conditions
12:53 AM 12.0 °F - 6.1 °F 77% 30.20 in 10.0 mi Calm Calm - N/A   Clear
1:53 AM 10.9 °F 1.4 °F 6.1 °F 81% 30.19 in 10.0 mi ESE 5.8 mph - N/A   Clear
2:53 AM 10.9 °F 0.2 °F 5.0 °F 77% 30.19 in 10.0 mi SE 6.9 mph - N/A   Clear
3:53 AM 10.0 °F 3.6 °F 5.0 °F 80% 30.19 in 10.0 mi SSE 3.5 mph - N/A   Clear
4:53 AM 10.9 °F 2.9 °F 6.1 °F 81% 30.20 in 10.0 mi SSE 4.6 mph - N/A   Clear
5:53 AM 10.0 °F -0.9 °F 6.1 °F 84% 30.20 in 10.0 mi South 6.9 mph - N/A   Scattered Clouds
6:53 AM 10.4 °F - 6.8 °F 85% 30.13 in 10.0 mi North - - N/A   Clear
7:53 AM 12.9 °F -0.9 °F 7.0 °F 77% 30.19 in 10.0 mi South 11.5 mph - N/A   Clear
8:53 AM 16.0 °F 1.7 °F 9.0 °F 74% 30.18 in 10.0 mi South 13.8 mph - N/A   Clear
9:53 AM 18.0 °F 4.2 °F 10.9 °F 74% 30.18 in 10.0 mi South 13.8 mph - N/A   Clear
10:53 AM 21.0 °F 8.1 °F 12.0 °F 68% 30.18 in 10.0 mi SSE 13.8 mph - N/A   Clear
11:53 AM 25.0 °F 14.2 °F 14.0 °F 63% 30.15 in 10.0 mi SSE 11.5 mph - N/A   Clear
12:53 PM 27.0 °F - 16.0 °F 63% 30.12 in 10.0 mi North - - N/A   Clear
1:53 PM 28.9 °F 17.7 °F 18.0 °F 64% 30.08 in 10.0 mi SE 15.0 mph - N/A   Clear
2:53 PM 30.0 °F 18.3 °F 18.0 °F 61% 30.04 in 10.0 mi SE 17.3 mph - N/A   Clear
3:53 PM 30.0 °F 17.9 °F 19.0 °F 64% 30.03 in 10.0 mi SSE 18.4 mph - N/A   Clear
4:53 PM 30.0 °F 18.7 °F 19.9 °F 66% 30.00 in 10.0 mi SSE 16.1 mph - N/A   Clear
5:53 PM 28.9 °F 16.9 °F 19.9 °F 69% 29.99 in 10.0 mi SSE 17.3 mph - N/A   Clear
6:53 PM 28.9 °F 16.9 °F 19.9 °F 69% 29.96 in 10.0 mi SSE 17.3 mph 24.2 mph N/A   Clear
7:53 PM 28.0 °F - 19.9 °F 72% 29.95 in 10.0 mi North - - N/A   Clear
8:53 PM 28.0 °F 14.9 °F 21.0 °F 75% 29.93 in 10.0 mi SSE 19.6 mph - N/A   Clear
9:53 PM 28.9 °F 14.8 °F 21.0 °F 72% 29.89 in 10.0 mi SSE 24.2 mph 28.8 mph N/A   Clear
11:53 PM 28.9 °F 16.1 °F 21.9 °F 75% 29.84 in 10.0 mi SSE 19.6 mph - N/A   Clear